When you browse on this site, cookies collect data to enhance your experience and personalize the content and advertising you see.
Visit our Privacy Policy to learn more. By continuing to use the site, you agree to this use of cookies and data.
  • In Deutschland
  • Länderverzeichnis
  • Für 7 Tage
  • Wassertemperatur
  • Wetterkarte
  • Widgets
  • user-avatar
    Anmelden

    Stündliche Wetter Zofinin

    Heute, 2 Juni, Dienstag

    Zeit Temperatur Niederschläge Wind Luftdruck Luftfeuchtigkeit
    00:00 +9°C° 0.4 mm 3 m/S 751 mmHg 90%
    01:00 +8°C° 0 mm 2 m/S 750 mmHg 95%
    02:00 +8°C° 0 mm 2 m/S 750 mmHg 95%
    03:00 +7°C° 0 mm 3 m/S 750 mmHg 95%
    04:00 +7°C° 0 mm 3 m/S 750 mmHg 95%
    05:00 +8°C° 0 mm 3 m/S 750 mmHg 89%
    06:00 +10°C° 0 mm 4 m/S 750 mmHg 82%
    07:00 +11°C° 0 mm 4 m/S 749 mmHg 76%
    08:00 +13°C° 0 mm 5 m/S 749 mmHg 70%
    09:00 +14°C° 0 mm 6 m/S 749 mmHg 64%
    10:00 +15°C° 0 mm 6 m/S 749 mmHg 59%
    11:00 +16°C° 0 mm 6 m/S 748 mmHg 57%
    12:00 +16°C° 0 mm 7 m/S 748 mmHg 56%
    13:00 +17°C° 0 mm 7 m/S 748 mmHg 55%
    14:00 +17°C° 0.2 mm 6 m/S 747 mmHg 58%
    15:00 +16°C° 0.2 mm 6 m/S 747 mmHg 61%
    16:00 +16°C° 0.2 mm 6 m/S 746 mmHg 64%
    17:00 +15°C° 0.2 mm 5 m/S 746 mmHg 69%
    18:00 +13°C° 0.2 mm 4 m/S 746 mmHg 74%
    19:00 +12°C° 0.2 mm 3 m/S 746 mmHg 80%
    20:00 +11°C° 0 mm 3 m/S 746 mmHg 83%
    21:00 +10°C° 0 mm 3 m/S 746 mmHg 87%
    22:00 +9°C° 0 mm 3 m/S 745 mmHg 90%
    23:00 +9°C° 0 mm 3 m/S 745 mmHg 91%

    Morgen, 3 Juni, Mittwoch

    Zeit Temperatur Niederschläge Wind Luftdruck Luftfeuchtigkeit
    00:00 +8°C° 0 mm 3 m/S 745 mmHg 92%
    01:00 +8°C° 0 mm 3 m/S 745 mmHg 92%
    02:00 +8°C° 0 mm 3 m/S 745 mmHg 92%
    03:00 +8°C° 0 mm 3 m/S 744 mmHg 91%
    04:00 +8°C° 0 mm 4 m/S 744 mmHg 90%
    05:00 +9°C° 0.2 mm 3 m/S 744 mmHg 91%
    06:00 +9°C° 0.2 mm 3 m/S 744 mmHg 91%
    07:00 +9°C° 0.2 mm 3 m/S 744 mmHg 92%
    08:00 +11°C° 0.1 mm 3 m/S 744 mmHg 87%
    09:00 +12°C° 0.1 mm 3 m/S 744 mmHg 82%
    10:00 +13°C° 0.1 mm 3 m/S 744 mmHg 78%
    11:00 +14°C° 0.7 mm 3 m/S 743 mmHg 76%
    12:00 +14°C° 0.7 mm 4 m/S 743 mmHg 75%
    13:00 +15°C° 0.7 mm 4 m/S 743 mmHg 73%
    14:00 +15°C° 0.5 mm 4 m/S 742 mmHg 72%
    15:00 +15°C° 0.5 mm 4 m/S 742 mmHg 71%
    16:00 +15°C° 0.5 mm 4 m/S 742 mmHg 70%
    17:00 +14°C° 0.2 mm 4 m/S 742 mmHg 75%
    18:00 +13°C° 0.2 mm 3 m/S 741 mmHg 80%
    19:00 +13°C° 0.2 mm 2 m/S 741 mmHg 85%
    20:00 +12°C° 0.1 mm 2 m/S 741 mmHg 88%
    21:00 +10°C° 0.1 mm 2 m/S 741 mmHg 90%
    22:00 +9°C° 0.1 mm 2 m/S 741 mmHg 92%
    23:00 +9°C° 0 mm 2 m/S 741 mmHg 93%

    übermorgen, 4 Juni, Donnerstag

    Zeit Temperatur Niederschläge Wind Luftdruck Luftfeuchtigkeit
    00:00 +8°C° 0 mm 2 m/S 741 mmHg 94%
    01:00 +8°C° 0 mm 2 m/S 741 mmHg 95%
    02:00 +9°C° 0 mm 1 m/S 741 mmHg 95%
    03:00 +8°C° 0 mm 1 m/S 740 mmHg 96%
    04:00 +8°C° 0 mm 1 m/S 740 mmHg 96%
    05:00 +10°C° 0 mm 1 m/S 740 mmHg 92%
    06:00 +12°C° 0 mm 1 m/S 740 mmHg 87%
    07:00 +13°C° 0 mm 1 m/S 741 mmHg 82%
    08:00 +15°C° 0 mm 1 m/S 740 mmHg 75%
    09:00 +16°C° 0 mm 1 m/S 740 mmHg 67%
    10:00 +19°C° 0 mm 1 m/S 740 mmHg 59%
    11:00 +19°C° 0 mm 1 m/S 740 mmHg 56%
    12:00 +19°C° 0 mm 2 m/S 740 mmHg 53%
    13:00 +20°C° 0 mm 2 m/S 739 mmHg 51%
    14:00 +21°C° 0 mm 1 m/S 739 mmHg 50%
    15:00 +21°C° 0 mm 1 m/S 739 mmHg 50%
    16:00 +21°C° 0 mm 1 m/S 739 mmHg 50%
    17:00 +20°C° 0 mm 1 m/S 739 mmHg 56%
    18:00 +19°C° 0 mm 1 m/S 738 mmHg 62%
    19:00 +18°C° 0 mm 1 m/S 738 mmHg 68%
    20:00 +15°C° 0 mm 2 m/S 738 mmHg 70%
    21:00 +14°C° 0 mm 2 m/S 738 mmHg 72%
    22:00 +12°C° 0 mm 3 m/S 738 mmHg 75%
    23:00 +12°C° 0 mm 3 m/S 738 mmHg 78%

    5 Juni, Freitag

    Zeit Temperatur Niederschläge Wind Luftdruck Luftfeuchtigkeit
    00:00 +11°C° 0 mm 3 m/S 738 mmHg 82%
    01:00 +11°C° 0 mm 4 m/S 738 mmHg 85%
    02:00 +11°C° 0 mm 4 m/S 737 mmHg 86%
    03:00 +11°C° 0 mm 4 m/S 737 mmHg 87%
    04:00 +10°C° 0 mm 5 m/S 736 mmHg 87%
    05:00 +13°C° 0 mm 5 m/S 736 mmHg 86%
    06:00 +14°C° 0 mm 5 m/S 736 mmHg 85%
    07:00 +16°C° 0 mm 5 m/S 735 mmHg 83%
    08:00 +17°C° 0 mm 5 m/S 735 mmHg 81%
    09:00 +19°C° 0 mm 4 m/S 735 mmHg 78%
    10:00 +20°C° 0 mm 4 m/S 735 mmHg 75%
    11:00 +21°C° 0.5 mm 4 m/S 735 mmHg 76%
    12:00 +21°C° 0.5 mm 5 m/S 735 mmHg 77%
    13:00 +21°C° 0.5 mm 5 m/S 735 mmHg 78%
    14:00 +21°C° 0.6 mm 5 m/S 736 mmHg 76%
    15:00 +22°C° 0.6 mm 5 m/S 736 mmHg 75%
    16:00 +22°C° 0.6 mm 5 m/S 737 mmHg 74%
    17:00 +20°C° 0.3 mm 5 m/S 737 mmHg 79%
    18:00 +19°C° 0.3 mm 4 m/S 738 mmHg 84%
    19:00 +17°C° 0.3 mm 4 m/S 738 mmHg 89%
    20:00 +15°C° 0.3 mm 4 m/S 739 mmHg 90%
    21:00 +13°C° 0.3 mm 4 m/S 739 mmHg 91%
    22:00 +12°C° 0.3 mm 4 m/S 740 mmHg 92%
    23:00 +12°C° 0.1 mm 4 m/S 741 mmHg 92%

    6 Juni, Samstag

    Zeit Temperatur Niederschläge Wind Luftdruck Luftfeuchtigkeit
    00:00 +11°C° 0.1 mm 3 m/S 741 mmHg 93%
    01:00 +11°C° 0.1 mm 3 m/S 742 mmHg 93%
    02:00 +10°C° 0 mm 3 m/S 742 mmHg 94%
    03:00 +10°C° 0 mm 2 m/S 742 mmHg 95%
    04:00 +9°C° 0 mm 2 m/S 743 mmHg 95%
    05:00 +11°C° 0 mm 3 m/S 743 mmHg 90%
    06:00 +12°C° 0 mm 4 m/S 744 mmHg 84%
    07:00 +14°C° 0 mm 5 m/S 744 mmHg 79%
    08:00 +15°C° 0 mm 5 m/S 744 mmHg 72%
    09:00 +17°C° 0 mm 5 m/S 744 mmHg 65%
    10:00 +20°C° 0 mm 6 m/S 744 mmHg 58%
    11:00 +21°C° 0 mm 6 m/S 744 mmHg 56%
    12:00 +21°C° 0 mm 6 m/S 744 mmHg 55%
    13:00 +22°C° 0 mm 6 m/S 744 mmHg 54%
    14:00 +22°C° 0 mm 6 m/S 744 mmHg 55%
    15:00 +22°C° 0 mm 6 m/S 744 mmHg 57%
    16:00 +23°C° 0 mm 5 m/S 745 mmHg 59%
    17:00 +21°C° 0.1 mm 4 m/S 745 mmHg 65%
    18:00 +20°C° 0.1 mm 3 m/S 745 mmHg 70%
    19:00 +19°C° 0.1 mm 2 m/S 745 mmHg 76%
    20:00 +18°C° 0 mm 2 m/S 746 mmHg 79%
    21:00 +17°C° 0 mm 2 m/S 746 mmHg 81%
    22:00 +16°C° 0 mm 2 m/S 747 mmHg 84%
    23:00 +16°C° 0 mm 2 m/S 747 mmHg 85%

    7 Juni, Sonntag

    Zeit Temperatur Niederschläge Wind Luftdruck Luftfeuchtigkeit
    00:00 +15°C° 0 mm 2 m/S 747 mmHg 87%
    01:00 +15°C° 0 mm 2 m/S 747 mmHg 88%
    02:00 +15°C° 0 mm 2 m/S 747 mmHg 88%
    03:00 +15°C° 0 mm 2 m/S 747 mmHg 88%
    04:00 +14°C° 0 mm 2 m/S 747 mmHg 89%
    05:00 +16°C° 0 mm 3 m/S 748 mmHg 84%
    06:00 +18°C° 0 mm 3 m/S 748 mmHg 80%
    07:00 +19°C° 0 mm 3 m/S 748 mmHg 76%
    08:00 +21°C° 0 mm 4 m/S 748 mmHg 71%
    09:00 +22°C° 0 mm 4 m/S 748 mmHg 67%
    10:00 +23°C° 0 mm 4 m/S 748 mmHg 63%
    11:00 +23°C° 0 mm 5 m/S 748 mmHg 62%
    12:00 +25°C° 0 mm 5 m/S 747 mmHg 62%
    13:00 +24°C° 0 mm 6 m/S 747 mmHg 61%
    14:00 +23°C° 0 mm 5 m/S 746 mmHg 66%
    15:00 +22°C° 0 mm 5 m/S 746 mmHg 71%
    16:00 +21°C° 0 mm 5 m/S 745 mmHg 75%
    17:00 +20°C° 0.2 mm 4 m/S 745 mmHg 79%
    18:00 +20°C° 0.2 mm 4 m/S 745 mmHg 83%
    19:00 +19°C° 0.2 mm 3 m/S 745 mmHg 86%
    20:00 +18°C° 0.1 mm 3 m/S 745 mmHg 89%
    21:00 +18°C° 0.1 mm 3 m/S 745 mmHg 92%
    22:00 +17°C° 0.1 mm 2 m/S 744 mmHg 95%
    23:00 +17°C° 0 mm 2 m/S 744 mmHg 95%
    Mehr zeigen